Meteo Giornale » Osservazioni meteo Italia » Brescia-Montichiari

ore: 22:50 - Osservazioni Meteo Brescia-Montichiari
Lat. 45° 24' N Lon. 10° 18' E Alt. 104 metri s.l.m.

sereno Europe/Rome

16 °C

Sereno

Temp. 24 Ore

14 °C

22 °C

Nord-Est

7.4 Km/h

Dew point 12 °C

Umidità 77 %

Visibilità  10 Km

Il sole sorge alle ore 07:10

Il sole tramonta alle ore 19:09

Data e Ora Cielo e Fenomeni T °C DP °C Um. % Pres. hPa Vis. km Vento km/h
Oggi h: 22:50 sereno Sereno 16 12 77 1022 10 NE 7.4
Oggi h: 21:50 sereno Sereno 17 12 72 1022 10 N 5.5
Oggi h: 20:50 sereno Sereno 18 12 67 1022 10 N/NE 7.4
Oggi h: 19:50 poco_nuvoloso Poco Nuvoloso 19 10 55 1021 10 N 3.7
Oggi h: 18:50 poco_nuvoloso Poco Nuvoloso 21 9 46 1021 10 S/SE 7.4
Oggi h: 17:50 nuvoloso Nuvoloso 22 9 43 1020 10 N 5.5
Oggi h: 16:50 nuvoloso Nuvoloso 22 9 43 1020 10 N 5.5
Oggi h: 15:50 poco_nuvoloso Poco Nuvoloso 22 9 43 1020 10 S 9.3
Oggi h: 14:50 poco_nuvoloso Poco Nuvoloso 21 10 49 1021 10 N 5.5
Oggi h: 13:50 poco_nuvoloso Poco Nuvoloso 21 10 49 1021 10 S 9.3
Oggi h: 12:50 sereno Sereno 21 11 52 1021 10 N 3.7
Oggi h: 11:50 sereno Sereno 20 10 52 1022 10 S/SO 9.3
Oggi h: 10:50 sereno Sereno 19 11 59 1022 10 N 5.5
Oggi h: 09:50 sereno Sereno 18 10 59 1022 10 N 1.8
Oggi h: 08:50 sereno Sereno 16 13 82 1021 10 N 3.7
Oggi h: 07:50 sereno Sereno 14 12 87 1021 10 N 3.7
Oggi h: 06:50 nuvoloso Nuvoloso 14 11 82 1021 10 N 3.7
Oggi h: 05:50 nuvoloso Nuvoloso 15 11 76 1021 10 N 0
Oggi h: 04:50 nuvoloso Nuvoloso 16 11 72 1021 10 N 3.7
Oggi h: 03:50 nuvoloso Nuvoloso 16 11 72 1021 10 N 5.5
Oggi h: 01:50 molto_nuvoloso Molto Nuvoloso 16 12 77 1021 10 N 5.5
Oggi h: 00:50 molto_nuvoloso Molto Nuvoloso 15 12 82 1021 10 NE 7.4
Ieri h: 23:50 nuvoloso Nuvoloso 16 11 72 1021 10 NE 7.4